Regional Weather Roundup
Issued by NWS

Home | Current Version | Previous Version | Text Only | Print | Product List | Glossary On
Versions: 1 2 3 4 5 6 7 8 9 10 11 12 13 14 15 16 17 18 19 20 21 22 23 24 25 26 27 28 29 30 31 32 33 34 35 36 37 38 39 40 41 42 43 44 45 46 47 48 49 50
000
ASUS43 KOAX 210202
RWRNE

WEATHER ROUNDUP FOR NEBRASKA
NATIONAL WEATHER SERVICE OMAHA NE
800 PM CST MON NOV 20 2017

NOTES: SATELLITE DATA IS BEING USED TO AUGMENT CLOUD COVER ABOVE
       12000 FEET.
       "FAIR" INDICATES FEW OR NO CLOUDS BELOW 12,000 FEET WITH NO
       SIGNIFICANT WEATHER AND/OR OBSTRUCTIONS TO VISIBILITY.


NEZ001>004-019>022-054>056-210300-
NEBRASKA PANHANDLE

CITY           SKY/WX    TMP DP  RH WIND       PRES   REMARKS
SCOTTSBLUFF    CLOUDY    49  18  29 N7        29.79S
ALLIANCE       CLOUDY    42  21  43 W10       29.77F
CHADRON        CLEAR     39  24  55 SW6       29.75R WCI  35
GORDON         FAIR      33  19  57 CALM      29.74R
KIMBALL        CLOUDY    50  16  25 W12       29.83S
SIDNEY         CLOUDY    51  18  27 NW10      29.81S
$$

NEZ057>060-069>072-079>082-210300-
SOUTHWEST NEBRASKA

CITY           SKY/WX    TMP DP  RH WIND       PRES   REMARKS
NORTH PLATTE   CLOUDY    41  25  53 NW6       29.75R
IMPERIAL       CLOUDY    55  19  24 NW16      29.78R
LEXINGTON      CLOUDY    44  26  50 NW13      29.72R
MCCOOK         CLOUDY    52  23  32 NW12      29.74R
OGALLALA       CLOUDY    54  21  27 NW13      29.77S
$$

NEZ005>010-023>029-035>040-094-210300-
NORTH CENTRAL NEBRASKA

CITY           SKY/WX    TMP DP  RH WIND       PRES   REMARKS
VALENTINE      CLOUDY    41  21  44 NW6       29.72R
AINSWORTH      CLOUDY    42  22  45 W6        29.72R
BROKEN BOW     CLOUDY    53  21  28 NW12      29.71R
O`NEILL        CLEAR     46  23  39 NW8       29.69R
ORD            CLOUDY    35  24  64 NW6       29.69R WCI  30
THEDFORD       CLOUDY    42  22  44 CALM      29.74R
$$

NEZ041-046>049-061>064-073>077-083>087-210300-
SOUTH CENTRAL NEBRASKA

CITY           SKY/WX    TMP DP  RH WIND       PRES   REMARKS
GRAND ISLAND   CLOUDY    47  24  40 NW8       29.68R
AURORA         CLOUDY    44  26  48 SW3       29.68R
HASTINGS       CLOUDY    49  23  36 W7        29.68S
HEBRON         PTCLDY    48  28  45 SW3       29.68S
HOLDREGE       CLOUDY    50  25  38 W6        29.70S
KEARNEY        CLOUDY    46  25  43 NW8       29.69R
$$

NEZ011>018-030>034-042>045-210300-
NORTHEAST NEBRASKA

CITY           SKY/WX    TMP DP  RH WIND       PRES   REMARKS
NORFOLK        CLOUDY    41  25  53 W5        29.65R
ALBION         CLOUDY    38  24  56 NW3       29.67R
BLAIR          PTCLDY    47  29  50 S7        29.62F
COLUMBUS       CLEAR     42  25  50 W5        29.66R
FREMONT        CLOUDY    45  27  50 SW3       29.64S
TEKAMAH        CLOUDY    38  25  59 CALM      29.64R
WAYNE          CLOUDY    33  24  69 CALM      29.65R
$$

NEZ050>053-065>068-078-088>093-210300-
SOUTHEAST NEBRASKA

CITY           SKY/WX    TMP DP  RH WIND       PRES   REMARKS
LINCOLN        CLEAR     48  27  44 SW3       29.67S
OMAHA EPPLEY   MOCLDY    45  28  51 SE9       29.65S
BEATRICE       PTCLDY    47  28  46 SW5       29.68S
FALLS CITY     CLEAR     53  28  38 SW15      29.69R
NEBRASKA CITY  PTCLDY    48  28  46 SW14      29.67S
PLATTSMOUTH    MOCLDY    50  28  43 SW12      29.65S
$$

NEZ044-045-051>053-067-210300-
OMAHA AREA

CITY           SKY/WX    TMP DP  RH WIND       PRES   REMARKS
OMAHA EPPLEY   MOCLDY    45  28  51 SE9       29.65S
BLAIR          PTCLDY    47  29  50 S7        29.62F
FREMONT        CLOUDY    45  27  50 SW3       29.64S
MILLARD        MOCLDY    43  31  62 E3        29.64F
OFFUTT AFB     PTCLDY    37  28  69 CALM      29.65S
PLATTSMOUTH    MOCLDY    50  28  43 SW12      29.65S
WAHOO          FAIR      46  28  47 SW9       29.65R
$$



USA.gov is the U.S. government's official web portal to all federal, state and local government web resources and services.